User: anonymous   Login
Location: Long Point Provincial Park
(42.5794°N, 80.4103°W)
Time: 16:39:11
(UTC-04:00)
Language:

Iridium 19 - Orbit

View from above orbital plane
View from above orbital plane
View from above satellite
View from above satellite

Ground track
Ground track

The orbit data is extracted from the following two-line orbital elements,

1 24965U 97056A   16270.53703952 -.00000023  00000-0 -15201-4 0  9993
2 24965  86.3931  68.9198 0001941  87.9749 272.1669 14.34212841994766
Epoch (UTC): 26 September 2016 12:53:20
Eccentricity: 0.0001941
inclination: 86.3931°
perigee height: 776 km
apogee height: 779 km
right ascension of ascending node: 68.9198°
argument of perigee: 87.9749°
revolutions per day: 14.34212841
mean anomaly at epoch: 272.1669°
orbit number at epoch: 99476

The dashed part of the orbit path shows where the satellite is in the earth's shadow,  

DLR